Torna al catalogo

DMSP 5D-2 F13 DEB

AttivoSSO
NORAD 40600·DEBRIS·🇺🇸 United States

Lanciato Mar 24, 1995 da Vandenberg Space Force Base

Loading…

Prossimi Passaggi (prossime 24 ore)

TLE

AggiornatoSource: Space-Track

Epoca: Sep 12, 2026, 02:15 UTC

1 40600U 95015EX  26255.09426030  .00003851  00000-0  12888-2 0  9990
2 40600  98.8574 304.6372 0036556 129.8867 230.5542 14.37588357588366

Traccia DMSP 5D-2 F13 DEB in tempo reale con AllMySat

Download on the App Store